User: anonymous   Login
Location: Unspecified
(0.0000°N, 0.0000°E)
Time: 04:14:28
(UTC+00:00)
Language:

RASSVET-3 1 - Orbit

View from above orbital plane
View from above orbital plane
View from above satellite
View from above satellite

Ground track
Ground track

The orbit is defined by the following mean orbital elements,

1 68360U          26145.17829633 +.00000000 +00000-0 +29628-3 0 00003
2 68360  82.2957  38.1076 0006907 183.3818 176.7406 15.86112360    01
Epoch (UTC): 25 May 2026 04:16:44
Eccentricity: 0.0006907
inclination: 82.2957°
perigee height: 309 km
apogee height: 318 km
right ascension of ascending node: 38.1076°
argument of perigee: 183.3818°
revolutions per day: 15.86112360
mean anomaly at epoch: 176.7406°

The dashed part of the orbit path shows where the satellite is in the earth's shadow,  

DLR